Probability
0 0 0 0 0 0 0 0 0 0 0 0 0 0 0 0 0 0 0 0 0 0 0 0 0 0 0 0 0 0 0 0 0 0 0 0 0 0 0 0 0 0 3 3
0 0 0 0 0 0 0 0 0 0 0 0 0 0 0 0 0 0 0 0 0 0 0 0 0 0 0 0 0 0 0 0 0 0 0 0 0 0 0 0 0 0 0 3
0 0 0 0 0 0 0 0 0 0 0 0 0 0 0 0 0 0 0 0 0 0 0 0 0 0 0 0 0 0 0 0 0 0 0 0 0 0 0 0 0 0 0 0
0 0 0 0 0 0 0 0 0 0 0 0 0 0 0 0 0 0 0 0 0 0 0 0 0 0 0 0 0 0 0 0 0 0 0 0 0 0 0 0 0 0 0 0
0 0 0 0 0 0 0 0 0 0 0 0 0 0 0 0 0 0 0 0 0 0 0 0 0 0 0 0 0 0 0 0 0 0 0 0 0 0 0 0 0 0 0 0
0 0 0 0 0 0 0 0 0 0 0 0 0 0 0 0 0 0 0 0 0 0 0 0 0 0 0 0 0 0 0 0 0 0 0 0 0 0 0 0 0 0 0 0
0 0 0 0 0 0 0 0 0 0 0 0 0 0 0 0 0 0 0 0 0 0 0 0 0 0 0 0 0 0 0 0 0 0 0 0 0 0 0 0 0 0 0 0
0 0 0 0 0 0 0 0 0 0 0 0 0 0 0 0 0 0 0 0 0 0 0 0 0 0 0 0 0 0 0 0 0 0 0 0 0 0 0 0 0 0 0 0
0 0 0 0 0 0 0 0 0 0 0 0 0 0 0 0 0 0 0 0 0 0 0 0 0 0 0 0 0 0 0 0 0 0 0 0 0 0 0 0 0 0 0 0
0 0 0 0 0 0 0 0 0 0 0 0 0 0 0 0 0 0 0 0 0 0 0 0 0 0 0 0 0 0 0 0 0 0 0 0 0 0 0 0 0 0 0 0
0 0 0 0 0 0 0 0 0 0 0 0 0 0 0 0 0 0 0 0 0 0 0 0 0 0 0 0 0 0 0 0 0 0 0 0 0 0 0 0 0 0 0 0
0 0 0 0 0 0 0 0 0 0 0 0 0 0 0 0 0 0 0 0 0 0 0 0 0 0 0 0 0 0 0 0 0 0 0 0 0 0 0 0 0 0 0 0
0 0 0 0 0 0 0 0 0 0 0 0 0 0 0 0 0 0 0 0 0 0 0 0 0 0 0 0 0 0 0 0 0 0 0 0 0 0 0 0 0 0 0 0
0 0 0 0 0 0 0 0 0 0 0 0 0 0 0 0 0 0 0 0 0 0 0 0 0 0 0 0 0 0 0 0 0 0 0 0 0 0 0 0 0 0 0 0
0 0 0 0 0 0 0 0 0 0 0 0 0 0 0 0 0 0 0 0 0 0 0 0 0 0 0 0 0 0 0 0 0 0 0 0 0 0 0 0 0 0 0 0
0 0 0 0 0 0 0 0 0 0 0 0 0 0 0 0 0 0 0 0 0 0 0 0 0 0 0 0 0 0 0 0 0 0 0 0 0 0 0 0 0 0 0 0
0 0 0 0 0 0 0 0 0 0 0 0 0 0 0 0 0 0 0 0 0 0 0 0 0 0 0 0 0 0 0 0 0 0 0 0 0 0 0 0 0 0 0 0
0 0 0 0 0 0 0 0 0 0 0 0 0 0 0 0 0 0 0 0 0 0 0 0 0 0 0 0 0 0 0 0 0 0 0 0 0 0 0 0 0 0 0 0
0 0 0 0 0 0 0 0 0 0 0 0 0 0 0 0 0 0 0 0 0 0 0 0 0 0 0 0 0 0 0 0 0 0 0 0 0 0 0 0 0 0 0 0
0 0 0 0 0 0 0 0 0 0 0 0 0 0 0 0 0 0 0 0 0 0 0 0 0 0 0 0 0 0 0 0 0 0 0 0 0 0 0 0 0 0 0 0
0 0 0 0 0 0 0 0 0 0 0 0 0 0 0 0 0 0 0 0 0 0 0 0 0 0 0 0 0 0 0 0 0 0 0 0 0 0 0 0 0 0 0 0
0 0 0 0 0 0 0 0 0 0 0 0 0 0 0 0 0 0 0 0 0 0 0 0 0 0 0 0 0 0 0 0 0 0 0 0 0 0 0 0 0 0 0 0
0 0 0 0 0 0 0 0 0 0 0 0 0 0 0 0 0 0 0 0 0 0 0 0 0 0 0 0 0 0 0 0 0 0 0 0 0 0 0 0 0 0 0 0
0 0 0 0 0 0 0 0 0 0 0 0 0 0 0 0 0 0 0 0 0 0 0 0 0 0 0 0 0 0 0 0 0 0 0 0 0 0 0 0 0 0 0 0
0 0 0 0 0 0 0 0 0 0 0 0 0 0 0 0 0 0 0 0 0 0 0 0 0 0 0 0 0 0 0 0 0 0 0 0 0 0 0 0 0 0 0 0
0 0 0 0 0 0 0 0 0 0 0 0 0 0 0 0 0 0 0 0 0 0 0 0 0 0 0 0 0 0 0 0 0 0 0 0 0 0 0 0 0 0 0 0
Height
5715 5715 5713 5713 5712 5713 5713 5713 5714 5714 5715 5716 5717 5719 5720 5720 5722 5724 5726 5729 5731 5734 5736 5738 5740 5742 5743 5744 5745 5747 5747 5748 5749 5750 5751 5752 5754 5756 5757 5758 5760 5761 5763 5764
5716 5715 5714 5713 5712 5712 5712 5712 5712 5713 5713 5713 5714 5715 5716 5717 5718 5720 5722 5724 5726 5729 5730 5733 5734 5736 5737 5738 5739 5740 5740 5741 5742 5742 5743 5745 5746 5747 5748 5750 5751 5753 5754 5755
5716 5716 5714 5713 5712 5712 5711 5710 5710 5710 5710 5710 5710 5712 5713 5713 5714 5715 5717 5719 5721 5723 5725 5727 5728 5729 5730 5731 5732 5732 5733 5733 5734 5735 5736 5737 5738 5739 5740 5741 5742 5744 5745 5746
5716 5715 5713 5712 5712 5711 5710 5709 5709 5708 5708 5708 5708 5708 5710 5709 5710 5712 5713 5715 5716 5718 5719 5720 5722 5723 5723 5724 5724 5725 5725 5726 5726 5727 5728 5729 5730 5731 5731 5732 5733 5735 5736 5737
5716 5714 5713 5712 5711 5709 5708 5707 5707 5706 5705 5706 5705 5705 5707 5705 5706 5707 5709 5710 5711 5712 5713 5714 5715 5716 5716 5717 5717 5718 5718 5718 5718 5719 5719 5720 5721 5722 5723 5723 5725 5726 5727 5728
5715 5713 5712 5710 5709 5708 5706 5706 5705 5704 5703 5704 5703 5702 5703 5702 5703 5703 5704 5705 5706 5706 5707 5708 5709 5709 5710 5710 5710 5710 5710 5710 5710 5710 5710 5711 5712 5713 5714 5715 5716 5717 5719 5720
5713 5712 5710 5708 5707 5706 5704 5703 5702 5701 5700 5701 5700 5699 5701 5700 5699 5699 5700 5700 5700 5701 5702 5702 5702 5703 5703 5703 5703 5703 5703 5702 5702 5702 5702 5702 5703 5703 5705 5706 5708 5709 5710 5711
5710 5709 5708 5706 5704 5703 5701 5700 5700 5699 5697 5697 5696 5696 5698 5697 5696 5695 5695 5695 5695 5695 5696 5696 5696 5696 5696 5696 5695 5695 5695 5694 5694 5694 5694 5694 5695 5695 5696 5698 5699 5700 5701 5702
5707 5706 5705 5703 5701 5700 5698 5697 5696 5695 5694 5693 5693 5693 5693 5692 5692 5691 5691 5690 5690 5689 5689 5690 5689 5689 5689 5688 5688 5688 5687 5687 5687 5686 5687 5687 5687 5687 5688 5689 5690 5691 5692 5693
5703 5702 5702 5700 5698 5696 5695 5693 5692 5691 5689 5688 5689 5688 5688 5687 5686 5686 5685 5684 5684 5684 5683 5683 5682 5682 5681 5681 5681 5680 5680 5679 5679 5679 5679 5679 5679 5680 5680 5681 5682 5683 5683 5684
5699 5698 5697 5696 5694 5692 5691 5690 5687 5686 5685 5683 5682 5685 5683 5681 5680 5680 5679 5678 5678 5677 5677 5676 5675 5674 5674 5673 5673 5672 5672 5671 5671 5671 5671 5671 5671 5672 5672 5673 5673 5674 5674 5675
5694 5693 5691 5691 5689 5687 5686 5684 5683 5682 5680 5677 5676 5680 5677 5675 5673 5672 5672 5671 5671 5670 5669 5668 5667 5666 5665 5665 5665 5664 5664 5663 5663 5662 5662 5663 5663 5663 5664 5664 5665 5665 5666 5666
5688 5687 5685 5684 5685 5683 5680 5679 5677 5675 5674 5672 5671 5674 5671 5669 5666 5665 5664 5664 5663 5662 5661 5660 5659 5658 5657 5657 5656 5656 5655 5655 5654 5654 5654 5654 5654 5654 5655 5655 5656 5656 5657 5657
5681 5680 5679 5678 5675 5674 5673 5672 5670 5668 5667 5666 5666 5665 5664 5661 5659 5658 5657 5656 5655 5654 5653 5652 5651 5650 5649 5649 5648 5647 5647 5646 5646 5645 5645 5646 5646 5646 5646 5646 5647 5647 5648 5648
5673 5672 5671 5670 5668 5665 5665 5665 5663 5661 5660 5658 5658 5657 5657 5653 5652 5650 5649 5648 5647 5646 5645 5644 5643 5642 5641 5640 5640 5639 5638 5638 5637 5637 5637 5637 5637 5637 5637 5637 5638 5638 5639 5639
5665 5663 5661 5661 5660 5657 5656 5657 5655 5653 5651 5650 5648 5649 5648 5645 5644 5642 5641 5639 5638 5637 5636 5635 5634 5633 5632 5631 5630 5630 5629 5629 5629 5628 5628 5628 5628 5628 5628 5628 5629 5629 5630 5630
5655 5653 5651 5651 5649 5647 5648 5649 5646 5644 5643 5641 5640 5640 5638 5636 5635 5633 5632 5630 5628 5627 5626 5625 5624 5623 5623 5622 5621 5620 5620 5620 5619 5619 5619 5619 5619 5619 5619 5619 5620 5620 5621 5621
5646 5643 5640 5639 5639 5637 5641 5638 5636 5634 5633 5631 5630 5629 5628 5627 5625 5624 5622 5620 5618 5617 5616 5615 5614 5613 5612 5611 5611 5610 5610 5610 5609 5609 5609 5609 5609 5609 5609 5610 5610 5611 5611 5612
5635 5632 5630 5628 5626 5625 5628 5628 5625 5622 5622 5621 5620 5619 5617 5616 5615 5614 5612 5610 5608 5607 5605 5604 5603 5602 5601 5601 5600 5599 5599 5599 5599 5599 5599 5599 5599 5600 5600 5600 5600 5601 5601 5602
5624 5621 5620 5617 5614 5614 5618 5616 5612 5611 5610 5611 5608 5607 5606 5605 5604 5604 5602 5600 5598 5596 5594 5593 5592 5591 5590 5589 5588 5588 5588 5588 5588 5588 5588 5588 5589 5589 5590 5590 5590 5591 5591 5591
5611 5609 5608 5605 5601 5602 5606 5603 5600 5600 5599 5597 5595 5595 5594 5593 5592 5592 5590 5588 5587 5585 5583 5582 5581 5580 5578 5577 5577 5577 5577 5577 5577 5577 5577 5578 5578 5578 5579 5579 5580 5580 5581 5581
5598 5597 5596 5593 5591 5594 5592 5590 5589 5587 5585 5584 5582 5581 5581 5580 5579 5578 5577 5576 5574 5573 5571 5570 5568 5568 5567 5565 5565 5565 5565 5565 5565 5565 5566 5566 5567 5567 5568 5568 5569 5569 5570 5570
5585 5585 5582 5581 5582 5581 5578 5576 5574 5573 5571 5570 5569 5568 5567 5567 5566 5565 5564 5563 5561 5560 5559 5557 5556 5555 5554 5553 5552 5552 5552 5552 5553 5553 5554 5554 5555 5555 5556 5557 5557 5558 5558 5559
5571 5570 5568 5567 5568 5567 5564 5562 5560 5558 5557 5555 5555 5554 5553 5552 5552 5551 5550 5549 5548 5547 5545 5544 5543 5542 5541 5540 5539 5539 5539 5539 5540 5540 5541 5542 5542 5543 5544 5544 5545 5546 5546 5547
5557 5555 5553 5551 5553 5551 5550 5547 5545 5543 5542 5541 5540 5540 5538 5537 5537 5536 5535 5535 5534 5533 5532 5530 5529 5528 5528 5527 5526 5525 5525 5525 5526 5527 5528 5528 5529 5530 5531 5532 5533 5534 5534 5534
5544 5540 5537 5536 5537 5533 5533 5532 5530 5528 5527 5526 5525 5524 5524 5522 5521 5520 5520 5519 5519 5518 5517 5516 5515 5514 5513 5512 5512 5511 5511 5511 5512 5513 5513 5514 5516 5517 5518 5519 5520 5521 5522 5522
Wind_Speed
10 9 8 8 8 9 10 10 10 11 13 15 17 18 18 19 21 22 24 26 27 28 29 30 31 33 33 33 34 34 35 35 36 37 37 37 38 39 39 39 39 38 38 38
11 9 9 9 9 9 10 11 11 11 12 14 16 18 19 20 21 22 23 25 27 28 29 30 31 32 34 34 34 35 36 36 36 37 37 37 37 38 39 39 39 39 38 38
12 11 10 9 9 9 9 11 11 12 13 14 15 16 17 19 20 21 22 24 26 28 29 30 31 32 32 33 34 35 36 37 37 37 38 39 39 38 38 38 39 39 40 40
12 12 11 10 10 10 11 11 12 12 13 13 14 15 15 17 19 21 22 23 25 27 29 30 31 31 32 33 34 35 36 37 37 38 39 40 40 40 40 40 40 40 40 40
13 12 12 12 11 12 12 12 12 13 13 13 13 14 14 17 18 19 21 22 24 25 27 29 30 30 31 32 32 33 33 35 36 37 38 39 39 40 39 40 40 39 39 40
14 14 13 13 13 13 13 13 13 13 14 13 13 13 13 15 16 18 19 21 23 24 25 27 28 30 30 31 31 32 33 34 35 37 37 38 38 38 38 38 38 38 38 38
15 14 14 14 14 14 14 14 14 14 14 14 14 14 14 14 14 16 18 19 21 23 24 26 28 29 29 30 31 32 33 33 34 35 35 36 36 37 37 37 37 37 37 37
17 15 15 14 14 15 15 15 15 16 16 15 16 16 15 15 16 17 18 20 21 22 23 25 26 28 29 29 30 31 31 32 32 32 33 33 34 35 36 36 36 36 37 37
18 16 16 15 15 16 16 16 17 17 17 17 17 17 18 18 18 19 19 20 21 22 23 24 25 26 27 28 29 30 31 31 31 31 32 32 32 33 34 35 35 35 35 36
19 18 17 17 17 17 17 18 18 19 20 20 19 19 20 20 20 21 22 22 22 23 24 25 26 27 27 27 28 29 30 31 32 32 32 32 32 33 33 34 35 35 35 36
21 20 20 19 19 19 19 19 19 20 21 22 22 21 21 22 22 22 23 23 24 24 25 26 28 28 29 29 29 29 30 31 32 32 33 33 33 33 33 33 34 34 34 35
24 23 22 22 21 21 20 20 20 21 21 22 22 22 21 22 23 24 25 25 25 25 26 27 28 29 29 29 29 29 30 30 31 32 32 33 33 33 34 34 34 34 34 35
26 26 25 24 23 23 22 22 22 23 23 23 23 23 23 23 25 26 26 26 26 26 27 28 28 28 29 29 29 29 30 30 30 31 32 32 32 33 33 33 34 34 33 34
29 28 28 27 26 26 25 25 26 26 26 26 25 24 24 25 27 27 27 27 28 27 27 28 28 29 29 29 30 31 31 31 31 31 31 32 32 33 33 34 34 34 34 34
32 31 30 30 30 30 28 27 28 28 28 29 27 27 26 28 29 29 29 29 29 29 29 29 29 29 30 30 30 30 31 31 31 31 31 31 32 33 33 34 34 34 34 34
34 34 34 33 33 34 32 30 29 29 30 30 30 28 29 30 31 31 31 31 31 31 31 31 31 32 32 32 31 31 31 31 31 31 31 31 32 32 33 33 34 33 33 33
37 37 37 36 35 36 35 33 33 33 32 32 31 31 32 32 32 32 33 33 33 33 33 34 33 33 32 32 32 32 32 32 32 32 32 32 32 33 33 33 33 33 33 33
39 39 40 39 39 39 37 35 35 35 34 34 34 34 35 35 34 34 34 35 35 35 34 35 35 35 35 34 34 34 33 33 33 33 33 33 33 33 33 33 33 33 33 33
41 41 42 42 42 41 39 37 37 37 37 37 37 36 36 36 36 36 36 36 37 37 37 37 37 36 36 35 35 35 35 35 35 35 35 35 34 34 34 34 34 34 34 34
43 43 43 44 45 44 41 40 39 40 41 39 39 38 38 38 38 38 38 38 38 39 38 38 37 37 37 37 36 36 36 35 35 35 35 35 35 35 34 34 34 34 34 34
45 45 45 45 46 45 43 42 42 42 42 41 41 41 40 40 40 40 40 40 40 39 39 39 39 38 38 38 37 37 37 36 36 36 36 36 36 36 35 35 35 35 35 35
47 47 46 46 47 45 43 44 43 43 44 44 44 44 43 43 43 43 42 41 40 40 40 40 40 39 39 39 39 38 38 38 38 38 37 37 37 37 36 37 36 36 37 37
49 48 48 48 47 45 45 45 45 45 46 46 47 46 46 46 46 45 44 42 42 41 41 41 41 41 40 40 41 40 39 39 39 39 39 39 39 38 38 38 38 38 38 38
50 49 50 50 47 47 47 47 47 48 48 49 49 49 48 48 48 47 46 44 43 43 43 43 43 42 42 42 42 42 42 41 41 40 40 40 40 39 39 39 39 38 37 37
50 50 50 51 49 49 49 50 50 51 51 51 51 51 50 50 49 48 47 46 46 45 45 45 44 44 43 44 44 44 44 43 43 42 42 41 41 40 40 39 39 38 38 38
50 50 51 51 50 51 50 50 51 52 52 52 52 52 51 51 49 49 48 48 47 47 46 45 44 44 44 44 44 44 45 44 44 44 43 43 42 41 40 40 39 39 39 38
Wind_Direction
356 346 335 325 313 295 286 282 270 262 262 260 256 255 254 251 249 246 245 245 244 244 246 247 247 247 249 250 251 253 253 254 254 254 254 254 256 256 256 257 259 260 260 260
347 343 336 326 316 303 294 288 279 271 269 268 265 258 255 251 250 249 247 246 246 246 247 249 250 250 251 253 254 256 256 255 256 256 256 257 258 257 257 257 259 260 260 261
341 340 336 327 320 312 301 292 288 282 275 272 271 265 260 256 251 249 248 248 248 249 250 250 251 253 254 255 256 257 257 257 257 257 258 259 260 260 259 259 260 260 261 262
340 337 332 327 320 314 305 299 295 291 286 281 276 272 265 259 255 252 250 250 252 253 253 252 253 255 257 259 259 258 259 259 259 260 260 260 260 261 261 261 261 261 262 262
334 332 329 326 320 312 307 303 297 294 291 289 285 279 272 264 259 256 254 254 255 257 256 256 256 257 259 260 260 261 261 261 260 261 262 261 261 261 262 261 261 262 263 263
325 322 320 319 317 313 308 301 295 292 291 289 288 283 279 276 268 261 259 259 259 260 260 259 258 259 261 262 262 262 262 263 262 262 262 261 261 262 262 262 262 263 264 265
321 319 316 314 313 312 307 302 298 295 291 289 287 283 282 281 275 270 266 263 262 261 261 262 261 262 263 264 264 264 264 264 263 263 262 262 262 262 262 263 263 264 264 265
320 317 314 312 310 309 307 303 300 297 293 290 287 286 284 281 280 278 274 269 267 264 263 263 264 264 265 265 266 266 265 265 264 264 264 264 264 263 262 262 263 264 264 264
317 315 313 310 308 306 305 301 298 295 293 291 288 286 282 281 281 280 279 276 271 268 268 267 267 268 267 267 266 266 265 265 266 265 264 264 265 264 264 264 263 264 265 265
311 309 310 308 306 304 301 298 296 294 293 291 288 286 286 284 283 281 279 276 274 273 272 270 269 270 270 268 267 267 267 266 265 266 266 265 265 265 265 265 264 264 264 265
307 306 305 303 302 301 300 297 295 293 291 290 289 286 286 286 283 281 278 275 273 273 274 274 273 272 272 270 269 269 269 268 267 267 267 266 266 266 266 265 265 264 265 265
303 302 301 299 297 296 296 295 293 291 290 288 287 287 287 285 282 279 277 276 275 275 276 276 275 274 273 272 271 271 271 272 270 269 268 268 268 267 266 265 265 264 265 266
299 298 298 296 294 292 292 292 291 289 288 287 287 287 287 285 282 280 278 278 278 278 278 278 278 276 275 273 273 273 274 273 273 272 271 270 270 268 267 266 265 265 265 267
295 294 294 294 293 291 289 289 289 288 287 286 286 286 285 284 282 281 281 280 279 279 279 278 278 277 276 275 274 274 274 274 274 274 273 271 270 269 268 267 266 266 267 268
291 290 289 289 289 288 287 286 286 286 286 285 285 284 284 282 282 283 282 281 280 280 278 278 277 277 276 275 274 274 273 273 273 274 273 271 269 269 268 267 267 267 268 269
288 288 287 286 286 285 285 285 285 285 284 284 284 284 282 282 282 283 283 283 281 280 279 278 277 278 276 274 275 274 273 272 272 273 272 272 270 269 268 268 267 267 268 269
288 288 286 285 284 283 283 283 283 282 282 282 282 282 282 284 284 284 284 283 281 280 279 279 279 278 277 275 274 274 274 273 273 272 272 272 271 270 270 269 268 268 269 269
286 286 286 286 284 284 285 283 281 280 280 280 281 281 282 283 284 284 284 283 282 281 280 280 280 279 277 275 273 273 273 273 273 272 271 272 272 271 271 270 269 269 269 269
284 285 285 285 285 285 285 284 283 281 279 280 280 280 281 282 282 283 282 283 283 283 282 281 280 279 277 276 274 273 273 274 273 272 271 272 272 271 270 270 268 268 268 269
282 283 283 284 284 284 286 285 283 281 280 280 279 280 280 281 281 282 282 282 283 284 282 281 280 279 278 276 274 273 273 272 272 271 271 271 270 271 270 269 268 268 268 269
281 281 282 283 283 284 287 285 283 282 282 281 280 280 280 281 282 283 283 282 282 282 282 281 280 279 278 276 275 273 273 271 271 270 270 270 270 270 270 270 269 268 268 269
280 280 281 283 283 286 285 284 283 282 280 280 280 279 280 281 282 283 283 282 281 281 281 280 279 279 278 276 275 273 272 271 270 270 269 269 269 269 269 269 269 268 269 269
278 279 279 279 281 283 282 282 281 280 280 279 278 278 279 281 282 281 281 281 280 280 279 279 279 278 277 276 275 273 272 270 270 270 269 268 268 268 269 269 269 269 269 268
277 278 278 278 278 278 278 278 277 277 278 278 277 279 279 279 280 279 279 278 278 279 279 278 278 277 276 275 274 273 271 270 269 269 269 268 267 267 268 269 269 269 268 267
278 278 277 277 277 275 275 275 275 276 277 278 278 278 278 278 277 278 277 276 276 277 278 278 277 276 276 275 274 272 270 269 268 269 269 268 267 266 266 267 268 267 267 266
278 278 277 277 276 275 275 275 276 276 277 278 278 277 277 277 276 276 276 276 276 276 277 278 278 277 276 276 274 272 270 269 269 268 267 267 266 266 266 266 266 267 266 266